03-10-2023, 00:00:09,     42,    0.0,    9.7,   0.00,   0.00, 1008.1,    0.1, -999.0
03-10-2023, 00:00:19,     42,    0.0,    9.7,   0.00,   0.00, 1008.1,    0.2, -999.0
03-10-2023, 00:00:29,     42,    0.0,    9.6,   0.00,   0.00, 1008.1,    0.3, -999.0
03-10-2023, 00:00:39,     42,    0.0,    9.6,   0.00,   0.00, 1008.1,    0.3, -999.0
03-10-2023, 00:00:49,     42,    0.0,    9.6,   0.00,   0.00, 1008.1,    0.3, -999.0
03-10-2023, 00:00:59,     42,    0.0,    9.7,   0.00,   0.00, 1008.1,    0.3, -999.0
03-10-2023, 00:01:09,     41,    0.0,    9.7,   0.00,   0.00, 1008.1,    0.3, -999.0
03-10-2023, 00:01:19,     42,    0.0,    9.6,   0.00,   0.00, 1008.1,    0.3, -999.0
03-10-2023, 00:01:29,     42,    0.0,    9.7,   0.00,   0.00, 1008.1,    0.1, -999.0
03-10-2023, 00:01:39,     42,    0.0,    9.7,   0.00,   0.00, 1008.1,    0.1, -999.0
03-10-2023, 00:01:49,     42,    0.0,    9.7,   0.00,   0.00, 1008.1,    0.4, -999.0
03-10-2023, 00:01:59,     42,    0.0,    9.7,   0.00,   0.00, 1008.1,    0.2, -999.0
03-10-2023, 00:02:09,     42,    0.0,    9.6,   0.00,   0.00, 1008.1,    0.1, -999.0
03-10-2023, 00:02:19,     42,    0.0,    9.6,   0.00,   0.00, 1008.1,    0.2, -999.0
03-10-2023, 00:02:29,     42,    0.0,    9.7,   0.00,   0.00, 1008.1,    0.3, -999.0
03-10-2023, 00:02:39,     42,    0.0,    9.7,   0.00,   0.00, 1008.1,    0.1, -999.0
03-10-2023, 00:02:49,     42,    0.0,    9.7,   0.00,   0.00, 1008.1,    0.3, -999.0
03-10-2023, 00:02:59,     42,    0.0,    9.7,   0.00,   0.00, 1008.1,    0.3, -999.0
03-10-2023, 00:03:09,     42,    0.0,    9.7,   0.00,   0.00, 1008.1,    0.2, -999.0
03-10-2023, 00:03:19,     42,    0.0,    9.7,   0.00,   0.00, 1008.1,    0.6, -999.0
03-10-2023, 00:03:29,     42,    0.0,    9.7,   0.00,   0.00, 1008.1,    0.4, -999.0
03-10-2023, 00:03:39,     42,    0.0,    9.7,   0.00,   0.00, 1008.2,    0.3, -999.0
03-10-2023, 00:03:49,     42,    0.0,    9.6,   0.00,   0.00, 1008.1,    0.2, -999.0
03-10-2023, 00:03:59,     42,    0.0,    9.7,   0.00,   0.00, 1008.1,    0.3, -999.0
03-10-2023, 00:04:09,     42,    0.0,    9.7,   0.00,   0.00, 1008.1,    0.1, -999.0
03-10-2023, 00:04:18,     42,    0.0,    9.8,   0.00,   0.00, 1008.1,    0.2, -999.0
03-10-2023, 00:04:29,     42,    0.0,    9.6,   0.00,   0.00, 1008.1,    0.3, -999.0
03-10-2023, 00:04:39,     42,    0.0,    9.6,   0.00,   0.00, 1008.1,    0.2, -999.0
03-10-2023, 00:04:49,     43,    0.0,    9.7,   0.00,   0.00, 1008.1,    0.3, -999.0
03-10-2023, 00:04:58,     42,    0.0,    9.6,   0.00,   0.00, 1008.1,    0.3, -999.0
03-10-2023, 00:05:09,     42,    0.0,    9.6,   0.00,   0.00, 1008.1,    0.2, -999.0
03-10-2023, 00:05:19,     42,    0.0,    9.6,   0.00,   0.00, 1008.2,    0.1, -999.0
03-10-2023, 00:05:28,     42,    0.0,    9.6,   0.00,   0.00, 1008.2,    0.4, -999.0
03-10-2023, 00:05:38,     42,    0.0,    9.5,   0.00,   0.00, 1008.2,    0.1, -999.0
03-10-2023, 00:05:49,     42,    0.0,    9.6,   0.00,   0.00, 1008.2,    0.2, -999.0
03-10-2023, 00:05:58,     42,    0.0,    9.6,   0.00,   0.00, 1008.2,    0.2, -999.0
03-10-2023, 00:06:08,     42,    0.0,    9.7,   0.00,   0.00, 1008.2,    0.2, -999.0
03-10-2023, 00:06:18,     41,    0.0,    9.7,   0.00,   0.00, 1008.2,    0.2, -999.0
03-10-2023, 00:06:29,     42,    0.0,    9.6,   0.00,   0.00, 1008.3,    0.4, -999.0
03-10-2023, 00:06:38,     42,    0.0,    9.6,   0.00,   0.00, 1008.3,    0.2, -999.0
03-10-2023, 00:06:48,     42,    0.0,    9.6,   0.00,   0.00, 1008.3,    0.1, -999.0
03-10-2023, 00:06:58,     42,    0.0,    9.7,   0.00,   0.00, 1008.3,    0.3, -999.0
03-10-2023, 00:07:08,     42,    0.0,    9.7,   0.00,   0.00, 1008.3,    0.3, -999.0
03-10-2023, 00:07:18,     42,    0.0,    9.7,   0.00,   0.00, 1008.2,    0.1, -999.0
03-10-2023, 00:07:28,     42,    0.0,    9.7,   0.00,   0.00, 1008.2,    0.2, -999.0
03-10-2023, 00:07:38,     42,    0.0,    9.5,   0.00,   0.00, 1008.2,    0.3, -999.0
03-10-2023, 00:07:48,     42,    0.0,    9.7,   0.00,   0.00, 1008.3,    0.3, -999.0
03-10-2023, 00:07:58,     42,    0.0,    9.7,   0.00,   0.00, 1008.3,    0.2, -999.0
03-10-2023, 00:08:08,     42,    0.0,    9.7,   0.00,   0.00, 1008.2,    0.3, -999.0
03-10-2023, 00:08:18,     42,    0.0,    9.7,   0.00,   0.00, 1008.2,    0.2, -999.0
03-10-2023, 00:08:28,     42,    0.0,    9.7,   0.00,   0.00, 1008.3,    0.3, -999.0
03-10-2023, 00:08:38,     42,    0.0,    9.6,   0.00,   0.00, 1008.3,    0.2, -999.0
03-10-2023, 00:08:48,     42,    0.0,    9.6,   0.00,   0.00, 1008.3,    0.2, -999.0
03-10-2023, 00:08:58,     42,    0.0,    9.6,   0.00,   0.00, 1008.3,    0.3, -999.0
03-10-2023, 00:09:08,     42,    0.0,    9.6,   0.00,   0.00, 1008.2,    0.1, -999.0
03-10-2023, 00:09:18,     42,    0.0,    9.5,   0.00,   0.00, 1008.2,    0.2, -999.0
03-10-2023, 00:09:28,     42,    0.0,    9.6,   0.00,   0.00, 1008.2,    0.2, -999.0
03-10-2023, 00:09:38,     42,    0.0,    9.7,   0.00,   0.00, 1008.3,    0.2, -999.0
03-10-2023, 00:09:48,     42,    0.0,    9.6,   0.00,   0.00, 1008.2,    0.4, -999.0
03-10-2023, 00:09:58,     42,    0.0,    9.5,   0.00,   0.00, 1008.3,    0.1, -999.0
03-10-2023, 00:10:08,     42,    0.0,    9.7,   0.00,   0.00, 1008.3,    0.3, -999.0
03-10-2023, 00:10:18,     42,    0.0,    9.6,   0.00,   0.00, 1008.3,    0.3, -999.0
03-10-2023, 00:10:29,     42,    0.0,    9.6,   0.00,   0.00, 1008.3,    0.2, -999.0
03-10-2023, 00:10:38,     42,    0.0,    9.6,   0.00,   0.00, 1008.3,    0.3, -999.0
03-10-2023, 00:10:48,     42,    0.0,    9.6,   0.00,   0.00, 1008.3,    0.3, -999.0
03-10-2023, 00:10:58,     42,    0.0,    9.7,   0.00,   0.00, 1008.3,    0.3, -999.0
03-10-2023, 00:11:08,     42,    0.0,    9.6,   0.00,   0.00, 1008.3,    0.3, -999.0
03-10-2023, 00:11:18,     42,    0.0,    9.7,   0.00,   0.00, 1008.3,    0.2, -999.0
03-10-2023, 00:11:27,     42,    0.0,    9.7,   0.00,   0.00, 1008.3,    0.3, -999.0
03-10-2023, 00:11:38,     42,    0.0,    9.7,   0.00,   0.00, 1008.3,    0.3, -999.0
03-10-2023, 00:11:48,     43,    0.0,    9.6,   0.00,   0.00, 1008.3,    0.3, -999.0
03-10-2023, 00:11:57,     42,    0.0,    9.6,   0.00,   0.00, 1008.3,    0.3, -999.0
03-10-2023, 00:12:07,     42,    0.0,    9.7,   0.00,   0.00, 1008.3,    0.3, -999.0
03-10-2023, 00:12:18,     42,    0.0,    9.6,   0.00,   0.00, 1008.3,    0.3, -999.0
03-10-2023, 00:12:27,     42,    0.0,    9.7,   0.00,   0.00, 1008.3,    0.3, -999.0
03-10-2023, 00:12:37,     42,    0.0,    9.7,   0.00,   0.00, 1008.3,    0.3, -999.0
03-10-2023, 00:12:47,     42,    0.0,    9.7,   0.00,   0.00, 1008.3,    0.1, -999.0
03-10-2023, 00:12:58,     42,    0.0,    9.7,   0.00,   0.00, 1008.3,    0.2, -999.0
03-10-2023, 00:13:07,     42,    0.0,    9.7,   0.00,   0.00, 1008.3,    0.2, -999.0
03-10-2023, 00:13:17,     42,    0.0,    9.7,   0.00,   0.00, 1008.3,    0.3, -999.0
03-10-2023, 00:13:27,     42,    0.0,    9.7,   0.00,   0.00, 1008.3,    0.2, -999.0
03-10-2023, 00:13:37,     42,    0.0,    9.7,   0.00,   0.00, 1008.4,    0.1, -999.0
03-10-2023, 00:13:47,     42,    0.0,    9.7,   0.00,   0.00, 1008.3,    0.3, -999.0
03-10-2023, 00:13:57,     42,    0.0,    9.7,   0.00,   0.00, 1008.4,    0.1, -999.0
03-10-2023, 00:14:07,     42,    0.0,    9.6,   0.00,   0.00, 1008.4,    0.1, -999.0
03-10-2023, 00:14:17,     42,    0.0,    9.7,   0.00,   0.00, 1008.4,    0.2, -999.0
03-10-2023, 00:14:27,     42,    0.0,    9.7,   0.00,   0.00, 1008.4,    0.2, -999.0
03-10-2023, 00:14:37,     42,    0.0,    9.7,   0.00,   0.00, 1008.5,    0.2, -999.0
03-10-2023, 00:14:47,     42,    0.0,    9.7,   0.00,   0.00, 1008.5,    0.3, -999.0
03-10-2023, 00:14:57,     42,    0.0,    9.8,   0.00,   0.00, 1008.5,    0.2, -999.0
03-10-2023, 00:15:07,     42,    0.0,    9.8,   0.00,   0.00, 1008.5,    0.3, -999.0
03-10-2023, 00:15:17,     42,    0.0,    9.8,   0.00,   0.00, 1008.5,    0.2, -999.0
03-10-2023, 00:15:27,    332,    0.0,    9.7,   0.00,   0.00, 1008.5,    0.2, -999.0
03-10-2023, 00:15:37,    332,    0.0,    9.7,   0.00,   0.00, 1008.5,    0.2, -999.0
03-10-2023, 00:15:47,    332,    0.0,    9.7,   0.00,   0.00, 1008.5,    0.4, -999.0
03-10-2023, 00:15:57,    332,    0.0,    9.7,   0.00,   0.00, 1008.5,    0.3, -999.0
03-10-2023, 00:16:07,    332,    0.0,    9.7,   0.00,   0.00, 1008.5,    0.3, -999.0
03-10-2023, 00:16:17,    332,    0.0,    9.8,   0.00,   0.00, 1008.5,    0.2, -999.0
03-10-2023, 00:16:27,    332,    0.0,    9.8,   0.00,   0.00, 1008.6,    0.3, -999.0
03-10-2023, 00:16:37,    332,    0.0,    9.8,   0.00,   0.00, 1008.5,    0.2, -999.0
03-10-2023, 00:16:47,    332,    0.0,    9.8,   0.00,   0.00, 1008.5,    0.1, -999.0
03-10-2023, 00:16:57,    332,    0.0,    9.7,   0.00,   0.00, 1008.5,    0.3, -999.0
03-10-2023, 00:17:07,    332,    0.0,    9.8,   0.00,   0.00, 1008.5,    0.1, -999.0
03-10-2023, 00:17:16,    332,    0.0,    9.8,   0.00,   0.00, 1008.5,    0.2, -999.0
03-10-2023, 00:17:27,    332,    0.0,    9.8,   0.00,   0.00, 1008.5,    0.0, -999.0
03-10-2023, 00:17:37,    332,    0.0,    9.8,   0.00,   0.00, 1008.4,    0.1, -999.0
03-10-2023, 00:17:47,    332,    0.0,    9.8,   0.00,   0.00, 1008.4,    0.3, -999.0
03-10-2023, 00:17:56,    332,    0.0,    9.9,   0.00,   0.00, 1008.4,    0.3, -999.0
03-10-2023, 00:18:07,    332,    0.0,    9.9,   0.00,   0.00, 1008.4,    0.2, -999.0
03-10-2023, 00:18:17,    332,    0.0,    9.9,   0.00,   0.00, 1008.4,    0.2, -999.0
03-10-2023, 00:18:26,    332,    0.0,    9.8,   0.00,   0.00, 1008.4,    0.1, -999.0
03-10-2023, 00:18:37,    332,    0.0,    9.9,   0.00,   0.00, 1008.4,    0.3, -999.0
03-10-2023, 00:18:47,    332,    0.0,    9.9,   0.00,   0.00, 1008.4,    0.2, -999.0
03-10-2023, 00:18:56,    332,    0.0,    9.9,   0.00,   0.00, 1008.4,    0.3, -999.0
03-10-2023, 00:19:06,    332,    0.0,    9.9,   0.00,   0.00, 1008.5,    0.3, -999.0
03-10-2023, 00:19:17,    332,    0.0,    9.9,   0.00,   0.00, 1008.4,    0.2, -999.0
03-10-2023, 00:19:26,    332,    0.0,    9.9,   0.00,   0.00, 1008.4,    0.3, -999.0
03-10-2023, 00:19:36,    332,    0.0,    9.9,   0.00,   0.00, 1008.5,    0.3, -999.0
03-10-2023, 00:19:46,    332,    0.0,    9.9,   0.00,   0.00, 1008.5,    0.3, -999.0
03-10-2023, 00:19:56,    332,    0.0,    9.9,   0.00,   0.00, 1008.5,    0.3, -999.0
03-10-2023, 00:20:06,    332,    0.0,    9.8,   0.00,   0.00, 1008.5,    0.2, -999.0
03-10-2023, 00:20:16,    332,    0.0,    9.7,   0.00,   0.00, 1008.5,    0.1, -999.0
03-10-2023, 00:20:26,    332,    0.0,    9.7,   0.00,   0.00, 1008.5,    0.5, -999.0
03-10-2023, 00:20:36,    332,    0.0,    9.8,   0.00,   0.01, 1008.6,    0.0, -999.0
03-10-2023, 00:20:46,    332,    0.0,    9.8,   0.00,   0.00, 1008.5,    0.6, -999.0
03-10-2023, 00:20:56,    332,    0.0,    9.9,   0.00,   0.00, 1008.6,    0.3, -999.0
03-10-2023, 00:21:06,    332,    0.0,    9.9,   0.00,   0.00, 1008.6,    0.0, -999.0
03-10-2023, 00:21:16,    332,    0.0,    9.8,   0.00,   0.00, 1008.6,    0.5, -999.0
03-10-2023, 00:21:26,    332,    0.0,    9.9,   0.00,   0.00, 1008.6,    0.4, -999.0
03-10-2023, 00:21:36,    332,    0.0,    9.9,   0.00,   0.00, 1008.6,    0.4, -999.0
03-10-2023, 00:21:46,    332,    0.0,    9.9,   0.00,   0.00, 1008.6,    0.4, -999.0
03-10-2023, 00:21:56,    332,    0.0,    9.9,   0.00,   0.00, 1008.6,    0.3, -999.0
03-10-2023, 00:22:06,    332,    0.0,    9.9,   0.00,   0.00, 1008.6,    0.0, -999.0
03-10-2023, 00:22:16,    332,    0.0,    9.7,   0.00,   0.00, 1008.7,    0.3, -999.0
03-10-2023, 00:22:26,    332,    0.0,    9.8,   0.00,   0.00, 1008.7,    0.5, -999.0
03-10-2023, 00:22:36,    332,    0.0,    9.9,   0.00,   0.00, 1008.7,    0.0, -999.0
03-10-2023, 00:22:46,    332,    0.0,    9.8,   0.00,   0.00, 1008.6,    0.1, -999.0
03-10-2023, 00:22:56,    332,    0.0,    9.8,   0.00,   0.00, 1008.7,    0.3, -999.0
03-10-2023, 00:23:06,    332,    0.0,    9.9,   0.00,   0.00, 1008.6,    0.5, -999.0
03-10-2023, 00:23:16,    332,    0.1,    9.9,   0.00,   0.00, 1008.7,    0.3, -999.0
03-10-2023, 00:23:26,    332,    0.0,    9.9,   0.00,   0.00, 1008.7,    0.2, -999.0
03-10-2023, 00:23:36,    332,    0.0,    9.9,   0.00,   0.00, 1008.7,    0.2, -999.0
03-10-2023, 00:23:46,    332,    0.0,    9.8,   0.00,   0.00, 1008.6,    0.3, -999.0
03-10-2023, 00:23:56,    332,    0.0,    9.8,   0.00,   0.00, 1008.7,    0.2, -999.0
03-10-2023, 00:24:06,    332,    0.0,    9.9,   0.00,   0.00, 1008.7,    0.2, -999.0
03-10-2023, 00:24:15,    332,    0.0,    9.9,   0.00,   0.00, 1008.6,    0.3, -999.0
03-10-2023, 00:24:26,    332,    0.0,    9.9,   0.00,   0.00, 1008.6,    0.3, -999.0
03-10-2023, 00:24:36,    332,    0.0,    9.9,   0.00,   0.00, 1008.6,    0.5, -999.0
03-10-2023, 00:24:45,    333,    0.0,    9.9,   0.00,   0.00, 1008.6,    0.3, -999.0
03-10-2023, 00:24:55,    332,    0.0,    9.9,   0.00,   0.00, 1008.7,    0.3, -999.0
03-10-2023, 00:25:06,    332,    0.0,    9.9,   0.00,   0.00, 1008.7,    0.3, -999.0
03-10-2023, 00:25:15,    332,    0.0,    9.9,   0.00,   0.00, 1008.7,    0.1, -999.0
03-10-2023, 00:25:25,    332,    0.0,    9.9,   0.00,   0.00, 1008.6,    0.1, -999.0
03-10-2023, 00:25:35,    332,    0.4,    9.9,   0.00,   0.00, 1008.7,    0.3, -999.0
03-10-2023, 00:25:46,    332,    0.0,    9.9,   0.00,   0.00, 1008.6,    0.0, -999.0
03-10-2023, 00:25:55,    332,    0.0,    9.8,   0.00,   0.00, 1008.6,    0.1, -999.0
03-10-2023, 00:26:05,    332,    0.0,    9.8,   0.00,   0.00, 1008.6,    0.5, -999.0
03-10-2023, 00:26:15,    332,    0.0,    9.8,   0.00,   0.00, 1008.6,    0.0, -999.0
03-10-2023, 00:26:25,    332,    0.0,    9.8,   0.00,   0.00, 1008.6,    0.5, -999.0
03-10-2023, 00:26:35,    332,    0.0,    9.8,   0.00,   0.00, 1008.5,    0.4, -999.0
03-10-2023, 00:26:45,    332,    0.0,    9.8,   0.00,   0.00, 1008.6,    0.3, -999.0
03-10-2023, 00:26:55,    332,    0.0,    9.7,   0.00,   0.00, 1008.5,    0.0, -999.0
03-10-2023, 00:27:05,    332,    0.0,    9.7,   0.00,   0.00, 1008.5,    0.0, -999.0
03-10-2023, 00:27:15,    332,    0.0,    9.7,   0.00,   0.00, 1008.5,    0.1, -999.0
03-10-2023, 00:27:25,    332,    0.0,    9.7,   0.00,   0.00, 1008.5,    0.4, -999.0
03-10-2023, 00:27:35,    332,    0.0,    9.7,   0.00,   0.00, 1008.5,    0.5, -999.0
03-10-2023, 00:27:45,    332,    0.0,    9.7,   0.00,   0.00, 1008.5,    0.2, -999.0
03-10-2023, 00:27:55,    333,    0.0,    9.7,   0.00,   0.00, 1008.5,    0.2, -999.0
03-10-2023, 00:28:05,    332,    0.0,    9.8,   0.00,   0.00, 1008.5,    0.0, -999.0
03-10-2023, 00:28:15,    332,    0.0,    9.8,   0.00,   0.00, 1008.5,    0.2, -999.0
03-10-2023, 00:28:25,    332,    0.0,    9.7,   0.00,   0.00, 1008.5,    0.3, -999.0
03-10-2023, 00:28:35,    332,    0.0,    9.7,   0.00,   0.00, 1008.5,    0.2, -999.0
03-10-2023, 00:28:45,    332,    0.0,    9.7,   0.00,   0.00, 1008.4,    0.2, -999.0
03-10-2023, 00:28:55,    332,    0.0,    9.7,   0.00,   0.00, 1008.4,    0.1, -999.0
03-10-2023, 00:29:05,    332,    0.0,    9.7,   0.00,   0.00, 1008.5,    0.3, -999.0
03-10-2023, 00:29:15,    332,    0.0,    9.7,   0.00,   0.00, 1008.4,    0.2, -999.0
03-10-2023, 00:29:25,    332,    0.0,    9.7,   0.00,   0.00, 1008.4,    0.3, -999.0
03-10-2023, 00:29:35,    332,    0.0,    9.7,   0.00,   0.00, 1008.4,    0.0, -999.0
03-10-2023, 00:29:45,    332,    0.0,    9.8,   0.00,   0.00, 1008.4,    0.0, -999.0
03-10-2023, 00:29:55,    332,    0.0,    9.7,   0.00,   0.00, 1008.5,    0.2, -999.0
03-10-2023, 00:30:05,    332,    0.0,    9.8,   0.00,   0.00, 1008.4,    0.1, -999.0
03-10-2023, 00:30:15,    332,    0.0,    9.8,   0.00,   0.00, 1008.4,    0.2, -999.0
03-10-2023, 00:30:25,    332,    0.0,    9.7,   0.00,   0.00, 1008.4,    0.3, -999.0
03-10-2023, 00:30:35,    332,    0.0,    9.8,   0.00,   0.00, 1008.4,    0.2, -999.0
03-10-2023, 00:30:44,    333,    0.0,    9.7,   0.00,   0.00, 1008.5,    0.2, -999.0
03-10-2023, 00:30:55,    332,    0.0,    9.8,   0.00,   0.00, 1008.5,    0.2, -999.0
03-10-2023, 00:31:05,    332,    0.0,    9.7,   0.00,   0.00, 1008.5,    0.3, -999.0
03-10-2023, 00:31:14,    332,    0.0,    9.7,   0.00,   0.00, 1008.4,    0.3, -999.0
03-10-2023, 00:31:24,    332,    0.0,    9.7,   0.00,   0.00, 1008.5,    0.2, -999.0
03-10-2023, 00:31:35,    332,    0.0,    9.8,   0.00,   0.00, 1008.5,    0.2, -999.0
03-10-2023, 00:31:45,    332,    0.0,    9.8,   0.00,   0.00, 1008.5,    0.2, -999.0
03-10-2023, 00:31:54,    332,    0.0,    9.8,   0.00,   0.00, 1008.5,    0.3, -999.0
03-10-2023, 00:32:04,    332,    0.0,    9.8,   0.00,   0.00, 1008.5,    0.2, -999.0
03-10-2023, 00:32:15,    332,    0.0,    9.8,   0.00,   0.00, 1008.5,    0.3, -999.0
03-10-2023, 00:32:24,    332,    0.0,    9.7,   0.00,   0.00, 1008.5,    0.1, -999.0
03-10-2023, 00:32:34,    332,    0.0,    9.7,   0.00,   0.00, 1008.5,    0.3, -999.0
03-10-2023, 00:32:44,    332,    0.0,    9.7,   0.00,   0.00, 1008.5,    0.2, -999.0
03-10-2023, 00:32:54,    332,    0.0,    9.8,   0.00,   0.00, 1008.5,    0.1, -999.0
03-10-2023, 00:33:04,    332,    0.0,    9.9,   0.00,   0.00, 1008.5,    0.4, -999.0
03-10-2023, 00:33:14,    332,    0.0,    9.7,   0.00,   0.00, 1008.5,    0.3, -999.0
03-10-2023, 00:33:24,    332,    0.0,    9.7,   0.00,   0.00, 1008.5,    0.0, -999.0
03-10-2023, 00:33:34,    332,    0.0,    9.7,   0.00,   0.00, 1008.5,    0.0, -999.0
03-10-2023, 00:33:44,    332,    0.0,    9.7,   0.00,   0.00, 1008.5,    0.1, -999.0
03-10-2023, 00:33:54,    332,    0.0,    9.7,   0.00,   0.00, 1008.4,    0.3, -999.0
03-10-2023, 00:34:04,    330,    0.0,    9.8,   0.00,   0.00, 1008.4,    0.3, -999.0
03-10-2023, 00:34:14,    332,    0.0,    9.8,   0.00,   0.00, 1008.5,    0.3, -999.0
03-10-2023, 00:34:24,    333,    0.0,    9.7,   0.00,   0.00, 1008.4,    0.2, -999.0
03-10-2023, 00:34:34,    332,    0.0,    9.8,   0.00,   0.00, 1008.5,    0.3, -999.0
03-10-2023, 00:34:44,    332,    0.0,    9.8,   0.00,   0.00, 1008.4,    0.2, -999.0
03-10-2023, 00:34:54,    332,    0.0,    9.9,   0.00,   0.00, 1008.5,    0.3, -999.0
03-10-2023, 00:35:04,    332,    0.0,    9.7,   0.00,   0.00, 1008.5,    0.1, -999.0
03-10-2023, 00:35:14,    332,    0.0,    9.8,   0.00,   0.00, 1008.5,    0.3, -999.0
03-10-2023, 00:35:24,    332,    0.0,    9.8,   0.00,   0.00, 1008.5,    0.1, -999.0
03-10-2023, 00:35:34,    332,    0.0,    9.8,   0.00,   0.00, 1008.5,    0.3, -999.0
03-10-2023, 00:35:44,    332,    0.0,    9.8,   0.00,   0.00, 1008.5,    0.4, -999.0
03-10-2023, 00:35:54,    332,    0.0,    9.9,   0.00,   0.00, 1008.5,    0.1, -999.0
03-10-2023, 00:36:04,    332,    0.0,    9.9,   0.00,   0.00, 1008.5,    0.3, -999.0
03-10-2023, 00:36:14,    332,    0.0,    9.9,   0.00,   0.00, 1008.5,    0.2, -999.0
03-10-2023, 00:36:24,    332,    0.0,    9.8,   0.00,   0.00, 1008.5,    0.2, -999.0
03-10-2023, 00:36:34,    332,    0.0,    9.8,   0.00,   0.00, 1008.5,    0.2, -999.0
03-10-2023, 00:36:43,    332,    0.0,    9.8,   0.00,   0.00, 1008.5,    0.2, -999.0
03-10-2023, 00:36:54,    332,    0.0,    9.9,   0.00,   0.00, 1008.5,    0.2, -999.0
03-10-2023, 00:37:04,    332,    0.0,    9.8,   0.00,   0.00, 1008.5,    0.2, -999.0
03-10-2023, 00:37:14,    332,    0.0,    9.8,   0.00,   0.00, 1008.5,    0.3, -999.0
03-10-2023, 00:37:23,    332,    0.0,    9.9,   0.00,   0.00, 1008.6,    0.3, -999.0
03-10-2023, 00:37:34,    332,    0.0,    9.8,   0.00,   0.00, 1008.5,    0.3, -999.0
03-10-2023, 00:37:44,    332,    0.0,    9.8,   0.00,   0.00, 1008.6,    0.2, -999.0
03-10-2023, 00:37:53,    332,    0.0,    9.8,   0.00,   0.00, 1008.6,    0.3, -999.0
03-10-2023, 00:38:03,    332,    0.0,    9.8,   0.00,   0.00, 1008.6,    0.3, -999.0
03-10-2023, 00:38:14,    332,    0.0,    9.7,   0.00,   0.00, 1008.5,    0.2, -999.0
03-10-2023, 00:38:23,    332,    0.0,    9.8,   0.00,   0.00, 1008.6,    0.1, -999.0
03-10-2023, 00:38:33,    332,    0.0,    9.8,   0.00,   0.00, 1008.6,    0.3, -999.0
03-10-2023, 00:38:43,    332,    0.0,    9.8,   0.00,   0.00, 1008.6,    0.2, -999.0
03-10-2023, 00:38:54,    332,    0.0,    9.8,   0.00,   0.00, 1008.5,    0.1, -999.0
03-10-2023, 00:39:03,    332,    0.0,    9.8,   0.00,   0.00, 1008.6,    0.5, -999.0
03-10-2023, 00:39:13,    332,    0.0,    9.8,   0.00,   0.00, 1008.5,    0.5, -999.0
03-10-2023, 00:39:23,    332,    0.0,    9.8,   0.00,   0.00, 1008.5,    0.4, -999.0
03-10-2023, 00:39:33,    332,    0.0,    9.8,   0.00,   0.00, 1008.5,    0.4, -999.0
03-10-2023, 00:39:43,    332,    0.0,    9.8,   0.00,   0.00, 1008.5,    0.1, -999.0
03-10-2023, 00:39:53,    332,    0.0,    9.8,   0.00,   0.00, 1008.5,    0.4, -999.0
03-10-2023, 00:40:03,    332,    0.0,    9.8,   0.00,   0.00, 1008.5,    0.2, -999.0
03-10-2023, 00:40:13,    332,    0.0,    9.8,   0.00,   0.00, 1008.5,    0.3, -999.0
03-10-2023, 00:40:23,    332,    0.0,    9.7,   0.00,   0.00, 1008.5,    0.3, -999.0
03-10-2023, 00:40:33,    332,    0.0,    9.7,   0.00,   0.00, 1008.5,    0.0, -999.0
03-10-2023, 00:40:43,    332,    0.0,    9.7,   0.00,   0.00, 1008.5,    0.1, -999.0
03-10-2023, 00:40:53,    332,    0.0,    9.7,   0.00,   0.00, 1008.5,    0.3, -999.0
03-10-2023, 00:41:03,    332,    0.0,    9.7,   0.00,   0.00, 1008.6,    0.2, -999.0
03-10-2023, 00:41:13,    332,    0.0,    9.7,   0.00,   0.00, 1008.6,    0.3, -999.0
03-10-2023, 00:41:23,    332,    0.0,    9.7,   0.00,   0.00, 1008.6,    0.2, -999.0
03-10-2023, 00:41:33,    332,    0.0,    9.8,   0.00,   0.00, 1008.6,    0.3, -999.0
03-10-2023, 00:41:43,    332,    0.0,    9.7,   0.00,   0.00, 1008.6,    0.2, -999.0
03-10-2023, 00:41:53,    332,    0.0,    9.8,   0.00,   0.00, 1008.6,    0.4, -999.0
03-10-2023, 00:42:03,    332,    0.0,    9.8,   0.00,   0.00, 1008.6,    0.3, -999.0
03-10-2023, 00:42:13,    332,    0.0,    9.8,   0.00,   0.00, 1008.7,    0.2, -999.0
03-10-2023, 00:42:23,    332,    0.0,    9.8,   0.00,   0.00, 1008.7,    0.4, -999.0
03-10-2023, 00:42:33,    332,    0.0,    9.7,   0.00,   0.00, 1008.7,    0.4, -999.0
03-10-2023, 00:42:43,    332,    0.0,    9.8,   0.00,   0.00, 1008.7,    0.3, -999.0
03-10-2023, 00:42:53,    332,    0.0,    9.8,   0.00,   0.00, 1008.7,    0.1, -999.0
03-10-2023, 00:43:03,    332,    0.0,    9.8,   0.00,   0.00, 1008.7,    0.3, -999.0
03-10-2023, 00:43:12,    332,    0.0,    9.8,   0.00,   0.00, 1008.7,    0.2, -999.0
03-10-2023, 00:43:23,    332,    0.0,    9.8,   0.00,   0.00, 1008.7,    0.3, -999.0
03-10-2023, 00:43:33,    332,    0.0,    9.8,   0.00,   0.00, 1008.8,    0.1, -999.0
03-10-2023, 00:43:43,    332,    0.0,    9.8,   0.00,   0.00, 1008.8,    0.2, -999.0
03-10-2023, 00:43:52,    332,    0.0,    9.8,   0.00,   0.00, 1008.8,    0.2, -999.0
03-10-2023, 00:44:03,    332,    0.0,    9.8,   0.00,   0.00, 1008.8,    0.2, -999.0
03-10-2023, 00:44:13,    332,    0.0,    9.8,   0.00,   0.00, 1008.8,    0.2, -999.0
03-10-2023, 00:44:22,    332,    0.0,    9.8,   0.00,   0.00, 1008.8,    0.2, -999.0
03-10-2023, 00:44:33,    332,    0.0,    9.8,   0.00,   0.00, 1008.8,    0.2, -999.0
03-10-2023, 00:44:43,    332,    0.0,    9.8,   0.00,   0.00, 1008.8,    0.2, -999.0
03-10-2023, 00:44:52,    332,    0.0,    9.8,   0.00,   0.00, 1008.8,    0.2, -999.0
03-10-2023, 00:45:02,    330,    0.0,    9.8,   0.00,   0.00, 1008.8,    0.4, -999.0
03-10-2023, 00:45:13,    332,    0.0,    9.8,   0.00,   0.00, 1008.8,    0.2, -999.0
03-10-2023, 00:45:22,    332,    0.0,    9.8,   0.00,   0.00, 1008.8,    0.2, -999.0
03-10-2023, 00:45:32,    332,    0.0,    9.9,   0.00,   0.00, 1008.8,    0.2, -999.0
03-10-2023, 00:45:42,    281,    0.8,    9.9,   0.00,   0.00, 1009.0,    0.5, -999.0
03-10-2023, 00:45:53,    284,    0.8,    9.9,   0.00,   0.00, 1009.0,    0.2, -999.0
03-10-2023, 00:46:02,    280,    0.4,    9.9,   0.00,   0.00, 1009.0,    0.2, -999.0
03-10-2023, 00:46:12,    287,    0.0,    9.8,   0.00,   0.00, 1008.9,    0.2, -999.0
03-10-2023, 00:46:22,    290,    1.4,    9.9,   0.00,   0.00, 1009.0,    0.4, -999.0
03-10-2023, 00:46:32,    291,    0.2,    9.8,   0.00,   0.00, 1009.0,    0.4, -999.0
03-10-2023, 00:46:42,    288,    0.1,    9.8,   0.00,   0.00, 1009.0,    0.2, -999.0
03-10-2023, 00:46:52,    285,    1.2,    9.9,   0.00,   0.00, 1009.0,    0.4, -999.0